Spokane, WA
on Wednesday, November 14, 2012

Wednesday
Previous Day Next Day
Daily Summary
 ActualAverageRecord
Temperature
Mean Temperature °F 36°F  
Max Temperature 37°F 42°F 65°F (1899)
Min Temperature 33°F 30°F -7°F (1955)
Degree Days
Heating Degree Days 30 29  
Month to date heating degree days 353 368  
Since 1 July heating degree days 959 1156  
Cooling Degree Days 0 0  
Month to date cooling degree days 0 0  
Year to date cooling degree days 535 450  
Moisture
Dew Point 34°F   
Average Humidity 96    
Maximum Humidity 100    
Minimum Humidity 92    
Precipitation
Precipitation T in 0.07 in 0.74 in (1966)
Month to date precipitation 1.15 0.99  
Year to date precipitation 16.65 12.95  
Snow
Snow 0.00 in 0.20 in 5.30 in (1903)
Month to date snowfall 5.9 1.9  
Since 1 July snowfall 5.9 2.0  
Since 1 September snowfall 5.9 2.0  
Snow Depth 1.00 in   
Wind
Wind Speed 6 mph   
Max Wind Speed 13 mph   
Max Gust Speed 15 mph   
Visibility 1 miles   
Events Fog , Rain   

Key: T is trace of precipitation, MM is missing value
Source: NWS Daily Summary
Time(PST)TemperatureDew PointHumidity Pressure Visibility Wind DirectionWind SpeedGust SpeedPrecipitationEvents Conditions
12:53 AM 36.0°F 34.0°F 93% 30.19 in 10.0 miles South 6.9 mph - N/A   Overcast
1:53 AM 36.0°F 34.0°F 93% 30.19 in 10.0 miles South 4.6 mph - 0.00 in Rain Light Rain
2:07 AM 35.6°F 33.8°F 93% 30.14 in 10.0 miles South 5.8 mph - 0.00 in Rain Light Rain
2:40 AM 37.4°F 35.6°F 93% 30.14 in 0.5 miles SSW 10.4 mph - 0.00 in Rain Light Rain
2:53 AM 36.0°F 35.1°F 97% 30.18 in 0.5 miles SSW 11.5 mph - 0.00 in Rain Light Rain
3:53 AM 36.0°F 35.1°F 97% 30.18 in 0.5 miles SSW 6.9 mph - 0.00 in Fog Fog
4:53 AM 35.1°F 34.0°F 96% 30.19 in 0.5 miles SSW 9.2 mph - N/A Fog Fog
5:23 AM 35.6°F 35.6°F 100% 30.14 in 0.2 miles SW 6.9 mph - 0.00 in Fog Light Drizzle
5:53 AM 35.1°F 34.0°F 96% 30.20 in 0.2 miles WSW 8.1 mph - 0.00 in Fog Light Drizzle
6:53 AM 34.0°F 34.0°F 100% 30.22 in 0.2 miles SW 9.2 mph - 0.00 in   Light Drizzle
7:53 AM 33.1°F 33.1°F 100% 30.24 in 0.2 miles SW 10.4 mph - 0.00 in Fog Fog
8:53 AM 33.1°F 33.1°F 100% 30.26 in 0.2 miles SSW 8.1 mph - N/A   Overcast
9:53 AM 33.1°F 33.1°F 100% 30.28 in 0.2 miles SSW 11.5 mph - N/A   Overcast
10:53 AM 34.0°F 33.1°F 96% 30.30 in 1.0 miles SW 6.9 mph - N/A   Overcast
11:53 AM 34.0°F 33.1°F 96% 30.30 in 1.0 miles SW 6.9 mph - N/A   Overcast
12:53 PM 34.0°F 34.0°F 100% 30.30 in 1.0 miles Calm Calm - N/A   Overcast
1:53 PM 35.1°F 34.0°F 96% 30.30 in 1.0 miles South 4.6 mph - N/A   Overcast
2:11 PM 35.6°F 33.8°F 93% 30.24 in 2.0 miles Calm Calm - N/A   Overcast
2:48 PM 35.6°F 33.8°F 93% 30.25 in 1.0 miles SSE 3.5 mph - N/A   Overcast
2:53 PM 35.1°F 34.0°F 96% 30.31 in 1.0 miles Calm Calm - 0.00 in   Light Drizzle
3:53 PM 36.0°F 33.1°F 89% 30.32 in 1.0 miles Calm Calm - 0.00 in   Light Drizzle
4:38 PM 33.8°F 33.8°F 100% 30.27 in 0.2 miles NNE 5.8 mph - 0.00 in   Light Drizzle
4:53 PM 34.0°F 33.1°F 96% 30.33 in 0.2 miles NNE 4.6 mph - 0.00 in   Light Drizzle
5:26 PM 33.8°F 33.8°F 100% 30.28 in 0.2 miles NNE 5.8 mph - 0.00 in Fog Light Drizzle
5:53 PM 33.1°F 33.1°F 100% 30.35 in 0.2 miles NNE 3.5 mph - 0.00 in Fog Light Drizzle
6:53 PM 34.0°F 34.0°F 100% 30.35 in 0.2 miles NNE 3.5 mph - 0.00 in Fog Light Drizzle
7:53 PM 34.0°F 33.1°F 96% 30.36 in 0.2 miles North 3.5 mph - 0.00 in Fog Light Drizzle
8:53 PM 34.0°F 34.0°F 100% 30.36 in 0.2 miles NE 4.6 mph - 0.00 in   Light Drizzle
9:53 PM 34.0°F 34.0°F 100% 30.37 in 0.2 miles NNE 6.9 mph - 0.00 in Fog Light Drizzle
10:39 PM 33.8°F 33.8°F 100% 30.31 in 0.2 miles NNE 5.8 mph - 0.00 in Fog Fog
10:53 PM 34.0°F 33.1°F 96% 30.37 in 0.2 miles NNE 5.8 mph - 0.00 in Fog Fog
11:33 PM 33.8°F 33.8°F 100% 30.31 in 0.2 miles NNE 4.6 mph - N/A   Mist
11:53 PM 34.0°F 33.1°F 96% 30.37 in 0.2 miles NE 4.6 mph - N/A   Overcast
Moon Phase
Nov. 14 Nov. 20 Nov. 28 Dec. 06 Dec. 13
Sunrise:06:54 AM (PST) Moon Rise:07:53 AM (PST)11/14
Sunset:04:14 PM (PST) Moon Set:05:02 PM (PST)11/14

Copyright © 2014 The Weather Underground, Inc.